[[{"header":{"parameterUnit":"m.s-1","parameterCategory":1,"la1":30.2991,"la2":30.254,"lo1":-89.0895,"lo2":-89.0444,"dy":0.0017,"dx":0.0017,"nx":28,"ny":28,"refTime":"2024-02-28T03:00:00:Z","depth":0,"parameterNumber":2,"parameterNumberName":"U-component_of_WINDS"},"data":[0,0,0,0,0,0,0,0,0,0,0,0,0,0,0,0,0,0,0,0,0,0,0,0,0,0,0,0,0,0,0,0,0,0,0,0,0,0,0,0,0,0,0,0,0,0,0,0,0,0,0,0,0,0,0,0,0,0,-1.5235,-1.5236,0,-1.535,-1.5351,-1.5352,-1.5356,-1.5355,-1.5353,-1.5352,-1.5466,-1.5471,-1.5475,0,0,0,0,0,0,0,0,0,0,0,0,0,-1.5015,-1.5019,-1.5235,-1.5236,-1.5238,-1.5349,-1.5351,-1.5353,-1.5356,-1.5355,-1.5353,-1.5351,-1.5465,-1.547,-1.5475,0,0,0,0,0,0,0,0,0,0,0,0,0,-1.5118,-1.502,-1.5235,-1.5253,-1.5256,-1.5349,-1.5351,-1.5353,-1.5357,-1.5355,-1.5353,-1.5351,-1.5463,-1.5469,-1.5476,-1.5557,0,0,-1.5496,-1.5499,0,0,0,0,0,0,0,0,-1.5112,-1.5126,-1.5249,-1.5252,-1.5255,-1.5337,-1.5315,-1.5421,-1.5357,-1.5318,-1.5352,-1.535,-1.5425,-1.5434,-1.546,-1.5563,-1.5568,-1.5496,-1.55,-1.5503,-1.5505,0,0,0,0,0,0,0,-1.5105,-1.5121,-1.528,-1.5251,-1.5255,-1.5254,-1.5267,-1.5335,-1.5381,-1.5322,-1.5322,-1.5336,-1.5426,-1.5454,-1.5463,-1.5569,-1.5496,-1.5502,-1.5506,-1.5508,-1.5742,-1.5744,0,0,0,0,0,0,-1.5095,-1.5115,-1.5276,-1.5284,-1.5177,-1.526,-1.5274,-1.5312,-1.5381,-1.5389,-1.5337,-1.5336,-1.5444,-1.5455,-1.5467,-1.5564,-1.5503,-1.5509,-1.5513,-1.5739,-1.5742,-1.5745,0,0,0,0,0,0,-1.509,-1.5109,-1.5272,-1.52,-1.522,-1.5266,-1.5309,-1.5316,-1.5344,-1.5393,-1.5401,-1.5358,-1.5443,-1.5458,-1.5534,-1.5569,-1.5512,-1.5518,-1.5737,-1.574,-1.5743,-1.5762,0,0,0,0,0,0,-1.5084,-1.5107,-1.514,-1.52,-1.5224,-1.5339,-1.5312,-1.532,-1.5355,-1.5354,-1.5414,-1.5422,-1.5442,-1.5525,-1.5541,-1.5576,-1.5523,-1.5734,-1.5738,-1.5742,-1.5758,-1.5765,-1.5771,0,0,0,0,0,-1.5076,-1.514,-1.5141,-1.5161,-1.5266,-1.5341,-1.5354,-1.5377,-1.5358,-1.539,-1.5421,-1.542,-1.5563,-1.5533,-1.5551,-1.5589,-1.5732,-1.5737,-1.5742,-1.5755,-1.5764,-1.5771,0,0,0,0,0,0,-1.5082,-1.5149,-1.5151,-1.5237,-1.5283,-1.5341,-1.5382,-1.5386,-1.5438,-1.5434,-1.5459,-1.5473,-1.5549,-1.5577,-1.5542,-1.567,-1.5645,-1.5654,-1.5648,-1.5657,-1.5664,-1.5654,-1.5528,0,0,0,0,0,-1.5093,-1.515,-1.5205,-1.5275,-1.5298,-1.5337,-1.537,-1.5384,-1.5432,-1.5452,-1.5489,-1.5535,-1.559,-1.5625,-1.5679,-1.5763,-1.5775,-1.5798,-1.5805,-1.581,-1.5817,-1.5861,-1.5871,-1.5762,-1.5762,-1.5762,0,0,-1.5117,-1.516,-1.5194,-1.5277,-1.5315,-1.5371,-1.5353,-1.5414,-1.5455,-1.546,-1.5535,-1.5564,-1.5617,-1.5697,-1.5734,-1.5722,-1.585,-1.5816,-1.582,-1.5824,-1.5867,-1.5877,-1.5886,-1.5765,-1.5765,-1.5764,0,0,-1.5188,-1.5228,-1.529,-1.5328,-1.5386,-1.541,-1.5425,-1.5483,-1.5503,-1.5578,-1.5583,-1.5632,-1.5727,-1.5764,-1.5795,-1.588,-1.5879,-1.5897,-1.593,-1.5973,-1.5981,-1.5989,-1.6017,-1.6027,-1.5904,-1.5904,-1.5904,0,-1.521,-1.5297,-1.5322,-1.5382,-1.5417,-1.5426,-1.5488,-1.5523,-1.5595,-1.5618,-1.5605,-1.5723,-1.576,-1.5847,-1.5868,-1.5894,-1.591,-1.5889,-1.5978,-1.5986,-1.5994,-1.6021,-1.6031,-1.5905,-1.5905,-1.5905,-1.5905,0,-1.5319,-1.5379,-1.5422,-1.5491,-1.5532,-1.5593,-1.5625,-1.5663,-1.5673,-1.5699,-1.5774,-1.5818,-1.588,-1.5902,-1.5913,-1.5991,-1.5982,-1.5973,-1.5948,-1.6005,-1.6031,-1.6041,-1.5907,-1.5907,-1.5906,-1.5906,0,0,-1.5397,-1.5479,-1.5494,-1.5525,-1.5588,-1.5634,-1.5695,-1.5756,-1.5786,-1.5835,-1.5885,-1.5965,-1.5957,-1.5993,-1.6007,-1.6045,-1.6106,-1.6032,-1.6033,-1.6042,-1.6192,-1.6196,-1.6208,-1.6107,-1.611,-1.6111,-1.6187,0,-1.5473,-1.5582,-1.5606,-1.5699,-1.5753,-1.5761,-1.5814,-1.5857,-1.5883,-1.5931,-1.5959,-1.6015,-1.6002,-1.6023,-1.6061,-1.6091,-1.6136,-1.6086,-1.6152,-1.6154,-1.6136,-1.6222,-1.6227,-1.6296,-1.6197,-1.6199,-1.62,0,-1.5577,-1.5629,-1.5727,-1.5782,-1.5805,-1.5852,-1.5909,-1.5956,-1.6005,-1.6021,-1.606,-1.6071,-1.6132,-1.6106,-1.6189,-1.6154,-1.6183,-1.6202,-1.6205,-1.621,-1.6179,-1.6226,-1.6319,-1.6328,-1.6217,-1.6215,-1.6214,0,-1.562,-1.5715,-1.5785,-1.5811,-1.5878,-1.591,-1.5939,-1.5987,-1.6021,-1.6071,-1.6093,-1.6149,-1.6179,-1.6221,-1.6246,-1.6225,-1.6327,-1.6303,-1.6339,-1.6339,-1.6359,-1.6357,-1.6454,-1.6381,-1.6381,-1.6381,-1.6381,0,-1.5702,-1.5761,-1.5805,-1.5848,-1.5914,-1.5941,-1.6005,-1.6033,-1.6075,-1.6123,-1.6134,-1.6178,-1.6209,-1.6257,-1.6277,-1.6342,-1.6356,-1.6369,-1.6373,-1.6366,-1.6364,-1.6383,-1.6378,-1.6384,-1.6383,-1.6382,-1.6382,0,-1.5761,-1.5793,-1.587,-1.5927,-1.5942,-1.5988,-1.6036,-1.6077,-1.6103,-1.6163,-1.6178,-1.6218,-1.6275,-1.6305,-1.6376,-1.6389,-1.6461,-1.6463,-1.6444,-1.6445,-1.6479,-1.6475,-1.6591,-1.6606,-1.6525,-1.6526,-1.6526,0,-1.5809,-1.5855,-1.5917,-1.595,-1.5979,-1.6033,-1.6068,-1.6096,-1.6132,-1.619,-1.6224,-1.6282,-1.6329,-1.6419,-1.6454,-1.6508,-1.651,-1.6547,-1.6518,-1.6509,-1.6507,-1.6503,-1.6507,-1.6551,-1.6552,-1.6553,-1.6553,0,-1.5891,-1.5905,-1.5956,-1.6013,-1.6054,-1.61,-1.6145,-1.6171,-1.6206,-1.6245,-1.6304,-1.6341,-1.6413,-1.6469,-1.6526,-1.6554,-1.6559,-1.6562,-1.6573,-1.6566,-1.6552,-1.6557,-1.6455,-1.6559,-1.6558,-1.6558,-1.6558,-1.6557,-1.5945,-1.5985,-1.6034,-1.609,-1.6127,-1.6169,-1.6209,-1.6241,-1.629,-1.6352,-1.6365,-1.6426,-1.6473,-1.6549,-1.6579,-1.6626,-1.6618,-1.6635,-1.6638,-1.6641,-1.6641,-1.6546,-1.6637,-1.6637,-1.6637,-1.6637,-1.6637,0,-1.6025,-1.6057,-1.6109,-1.6171,-1.6215,-1.6217,-1.6267,-1.6302,-1.6356,-1.64,-1.6446,-1.6513,-1.6567,-1.6606,-1.6661,-1.6691,-1.6694,-1.6704,-1.6701,-1.6707,-1.6647,-1.6631,-1.6701,-1.6701,-1.6701,-1.6701,-1.6701,-1.6701,-1.6072,-1.6139,-1.6159,-1.6243,-1.6275,-1.6336,-1.6363,-1.6401,-1.6436,-1.6509,-1.6555,-1.658,-1.6622,-1.668,-1.6729,-1.6739,-1.6757,-1.6767,-1.6776,-1.6719,-1.6712,-1.6705,-1.669,-1.6771,-1.6771,-1.6832,-1.6833,-1.6833]},{"header":{"parameterUnit":"m.s-1","parameterCategory":1,"la1":30.2991,"la2":30.254,"lo1":-89.0895,"lo2":-89.0444,"dy":0.0017,"dx":0.0017,"nx":28,"ny":28,"refTime":"2024-02-28T03:00:00:Z","depth":0,"parameterNumber":3,"parameterNumberName":"V-component_of_WINDS"},"data":[0,0,0,0,0,0,0,0,0,0,0,0,0,0,0,0,0,0,0,0,0,0,0,0,0,0,0,0,0,0,0,0,0,0,0,0,0,0,0,0,0,0,0,0,0,0,0,0,0,0,0,0,0,0,0,0,0,0,4.7395,4.7395,0,4.7326,4.7326,4.7325,4.7333,4.7334,4.7336,4.7337,4.7263,4.726,4.7257,0,0,0,0,0,0,0,0,0,0,0,0,0,4.7533,4.7531,4.7395,4.7395,4.7394,4.7326,4.7326,4.7325,4.7333,4.7334,4.7336,4.7337,4.7264,4.726,4.7257,0,0,0,0,0,0,0,0,0,0,0,0,0,4.747,4.753,4.7396,4.739,4.7389,4.7327,4.7325,4.7324,4.7333,4.7335,4.7336,4.7338,4.7265,4.7261,4.7256,4.7194,0,0,4.7242,4.724,0,0,0,0,0,0,0,0,4.7473,4.7465,4.7392,4.739,4.7389,4.734,4.7347,4.7281,4.7332,4.7354,4.7337,4.7339,4.7287,4.7281,4.7264,4.7191,4.7188,4.7242,4.7239,4.7237,4.7236,0,0,0,0,0,0,0,4.7478,4.7468,4.7368,4.7391,4.7389,4.739,4.7383,4.7335,4.7312,4.7352,4.7353,4.7345,4.7287,4.7268,4.7262,4.7187,4.7242,4.7238,4.7235,4.7233,4.7062,4.706,0,0,0,0,0,0,4.7484,4.7471,4.737,4.7366,4.7436,4.7387,4.7379,4.7354,4.7312,4.7308,4.7343,4.7345,4.7275,4.7268,4.726,4.7187,4.7237,4.7233,4.723,4.7064,4.7062,4.706,0,0,0,0,0,0,4.7487,4.7475,4.7373,4.7419,4.7406,4.7382,4.7355,4.7352,4.7334,4.7306,4.7301,4.7329,4.7276,4.7266,4.7211,4.7184,4.7231,4.7227,4.7066,4.7063,4.7061,4.7039,0,0,0,0,0,0,4.7491,4.7476,4.7452,4.7418,4.7404,4.7326,4.7353,4.7349,4.7326,4.7328,4.7291,4.7286,4.7277,4.7218,4.7207,4.7179,4.7223,4.7069,4.7065,4.7062,4.7042,4.7036,4.7031,0,0,0,0,0,4.7496,4.7447,4.7451,4.7439,4.7374,4.7324,4.7316,4.7307,4.7324,4.73,4.7283,4.7288,4.7189,4.7212,4.72,4.717,4.707,4.7066,4.7062,4.7045,4.7037,4.7031,0,0,0,0,0,0,4.7477,4.7443,4.7446,4.7386,4.7358,4.7326,4.7295,4.7299,4.7265,4.7268,4.7257,4.7248,4.7194,4.7176,4.7203,4.711,4.7132,4.7125,4.7123,4.7116,4.711,4.7116,4.722,0,0,0,0,0,4.7466,4.743,4.7402,4.7351,4.7337,4.7319,4.7297,4.7293,4.7263,4.7251,4.7229,4.72,4.7163,4.7138,4.7102,4.704,4.7033,4.7013,4.7007,4.7003,4.6997,4.6966,4.6957,4.7046,4.7046,4.7046,0,0,4.7443,4.742,4.7397,4.7347,4.7325,4.7288,4.7309,4.7267,4.724,4.7244,4.7192,4.7175,4.7142,4.7084,4.7057,4.7068,4.6971,4.6997,4.6994,4.6991,4.6961,4.6952,4.6945,4.7044,4.7044,4.7044,0,0,4.7382,4.736,4.7317,4.7295,4.7262,4.7251,4.7241,4.7208,4.7198,4.7146,4.7149,4.7116,4.7051,4.7028,4.7008,4.6941,4.6945,4.6929,4.6899,4.6868,4.6862,4.6855,4.6833,4.6825,4.6923,4.6923,4.6923,0,4.7356,4.7301,4.7294,4.7253,4.7232,4.7236,4.7192,4.7171,4.7128,4.7113,4.7125,4.7046,4.7024,4.6962,4.6946,4.6928,4.6917,4.6933,4.6863,4.6857,4.6851,4.683,4.6821,4.6922,4.6922,4.6922,4.6922,0,4.7273,4.7234,4.7203,4.7164,4.7138,4.7096,4.7083,4.7058,4.7056,4.7044,4.6992,4.6965,4.6925,4.691,4.6907,4.6848,4.6856,4.6866,4.6888,4.6841,4.6821,4.6813,4.692,4.692,4.6921,4.6921,0,0,4.7197,4.7156,4.7145,4.7128,4.7093,4.7063,4.7022,4.6984,4.6964,4.6934,4.69,4.6847,4.6857,4.6834,4.6829,4.6801,4.6753,4.6815,4.6814,4.6806,4.6689,4.6683,4.6674,4.6755,4.6754,4.6752,4.6693,0,4.7134,4.7063,4.7056,4.6991,4.6957,4.6961,4.6926,4.6901,4.6888,4.6857,4.6843,4.6806,4.6821,4.6807,4.6781,4.6765,4.673,4.6768,4.6724,4.6723,4.6734,4.6663,4.6656,4.66,4.6685,4.6683,4.6682,0,4.7051,4.7021,4.6954,4.6927,4.6912,4.688,4.6847,4.6816,4.6788,4.6781,4.6757,4.6756,4.6714,4.6738,4.6681,4.6708,4.669,4.6679,4.6677,4.6673,4.6701,4.6659,4.6582,4.6575,4.667,4.6671,4.6672,0,4.7005,4.6948,4.6901,4.6886,4.6853,4.6831,4.6815,4.6789,4.6768,4.6738,4.6725,4.669,4.6671,4.6644,4.6634,4.6652,4.6578,4.6601,4.6572,4.6572,4.6557,4.6558,4.6478,4.6543,4.6543,4.6543,4.6543,0,4.6936,4.6895,4.6881,4.6852,4.6807,4.68,4.6755,4.6741,4.6718,4.6687,4.6688,4.6659,4.6647,4.6615,4.6607,4.6563,4.6553,4.6547,4.6546,4.6548,4.6549,4.6536,4.654,4.6541,4.6541,4.6542,4.6542,0,4.6877,4.6866,4.6816,4.6789,4.6781,4.6749,4.6726,4.6699,4.6688,4.6648,4.6639,4.6621,4.6585,4.6572,4.6527,4.6522,4.6471,4.6471,4.648,4.648,4.6453,4.6457,4.6363,4.6351,4.6422,4.6422,4.6421,0,4.6835,4.6804,4.6775,4.6755,4.674,4.6707,4.6686,4.6677,4.6655,4.6623,4.66,4.6564,4.6536,4.6478,4.646,4.6427,4.6428,4.6398,4.6423,4.6427,4.643,4.6433,4.643,4.6393,4.6392,4.6392,4.6391,0,4.6762,4.6758,4.6728,4.6697,4.6672,4.6647,4.6622,4.6605,4.6594,4.6569,4.6533,4.6511,4.6467,4.6432,4.6398,4.6382,4.6385,4.6384,4.6376,4.6378,4.6385,4.6383,4.6469,4.6386,4.6386,4.6387,4.6387,4.6387,4.6711,4.6685,4.6661,4.6628,4.6609,4.6587,4.6561,4.6547,4.6517,4.6482,4.6478,4.644,4.6415,4.637,4.6353,4.6323,4.6332,4.6319,4.6317,4.6314,4.6313,4.6389,4.6317,4.6317,4.6317,4.6317,4.6317,0,4.6639,4.6625,4.6595,4.6562,4.6536,4.6542,4.6516,4.6494,4.6461,4.6437,4.641,4.637,4.6336,4.6317,4.6285,4.6264,4.6265,4.6256,4.6258,4.6255,4.6306,4.6318,4.6256,4.6256,4.6256,4.6256,4.6256,4.6256,4.6599,4.6556,4.655,4.6498,4.6483,4.6447,4.6432,4.6411,4.6393,4.6349,4.6322,4.631,4.6289,4.6255,4.6225,4.6221,4.6209,4.62,4.6196,4.6245,4.6251,4.6257,4.6268,4.6197,4.6197,4.6147,4.6147,4.6147]}]]